timestamp,wind_dir_avg,wind_spd_max_dir,wind_spd_avg,wind_spd_gust,battery_voltage,lat,long
2017-10-27 00:00:00+00:00,220.0,214.0,2.1,2.51,12.7,47.59359,-54.27349
2017-10-27 00:10:00+00:00,225.0,219.0,1.75,2.07,12.6,47.59359,-54.27349
2017-10-27 00:20:00+00:00,228.0,229.0,2.33,2.6,12.7,47.59359,-54.27349
2017-10-27 00:30:00+00:00,229.0,231.0,2.78,3.16,12.7,47.59359,-54.27349
2017-10-27 00:40:00+00:00,239.0,239.0,2.21,2.59,12.7,47.59359,-54.27349
2017-10-27 00:50:00+00:00,219.0,219.0,1.87,2.28,12.7,47.59359,-54.27349
2017-10-27 01:00:00+00:00,227.0,228.0,1.4,1.8,12.7,47.59359,-54.27349
2017-10-27 01:10:00+00:00,206.0,205.0,2.39,2.76,12.6,47.59359,-54.27349
2017-10-27 01:20:00+00:00,190.0,193.0,2.8,3.18,12.7,47.59359,-54.27349
2017-10-27 01:30:00+00:00,208.0,208.0,2.83,3.01,12.7,47.59359,-54.27349
2017-10-27 03:20:00+00:00,155.0,150.0,0.55,0.65,12.6,47.59359,-54.27349
2017-10-27 03:30:00+00:00,78.0,69.0,0.2,0.34,12.6,47.59359,-54.27349
2017-10-27 03:40:00+00:00,54.0,54.0,0.66,0.98,12.7,47.59359,-54.27349
2017-10-27 03:50:00+00:00,47.0,33.0,1.41,1.79,12.7,47.59359,-54.27349
2017-10-27 04:00:00+00:00,38.0,36.0,1.8,2.04,12.6,47.59359,-54.27349
2017-10-27 04:10:00+00:00,36.0,44.0,1.92,2.19,12.6,47.59359,-54.27349
2017-10-27 04:20:00+00:00,17.0,15.0,1.33,1.52,12.6,47.59359,-54.27349
2017-10-27 09:30:00+00:00,315.0,448.0,0.01,0.0,12.6,47.59359,-54.27349
2017-10-27 12:00:00+00:00,315.0,0.0,0.01,0.0,12.9,47.59359,-54.27349
2017-10-27 12:10:00+00:00,315.0,0.0,0.01,0.0,13.0,47.59359,-54.27349
2017-10-27 12:20:00+00:00,315.0,0.0,0.01,0.0,13.2,47.59359,-54.27349
2017-10-27 12:40:00+00:00,315.0,0.0,0.01,0.0,13.4,47.59359,-54.27349
2017-10-27 13:00:00+00:00,315.0,0.0,0.01,0.0,13.6,47.59359,-54.27349
2017-10-27 13:10:00+00:00,315.0,0.0,0.01,0.0,13.8,47.59359,-54.27349
2017-10-27 13:20:00+00:00,315.0,0.0,0.01,0.0,14.1,47.59359,-54.27349
2017-10-27 13:30:00+00:00,315.0,0.0,0.01,0.0,14.4,47.59359,-54.27349
2017-10-27 13:50:00+00:00,315.0,0.0,0.01,0.0,14.3,47.59359,-54.27349
2017-10-27 14:00:00+00:00,315.0,0.0,0.01,0.0,13.7,47.59359,-54.27349
2017-10-27 14:40:00+00:00,263.0,271.0,0.52,0.68,14.0,47.59359,-54.27349
2017-10-27 14:50:00+00:00,61.0,54.0,0.79,1.01,14.0,47.59359,-54.27349
2017-10-27 15:00:00+00:00,65.0,57.0,1.47,1.72,14.2,47.59359,-54.27349
2017-10-27 15:10:00+00:00,50.0,39.0,1.37,1.76,13.9,47.59359,-54.27349
2017-10-27 15:20:00+00:00,319.0,315.0,1.9,2.36,13.7,47.59359,-54.27349
2017-10-27 15:30:00+00:00,319.0,318.0,1.81,2.03,13.8,47.59359,-54.27349
2017-10-27 15:40:00+00:00,302.0,298.0,1.93,2.25,13.9,47.59359,-54.27349
2017-10-27 15:50:00+00:00,291.0,291.0,2.54,2.91,13.7,47.59359,-54.27349
2017-10-27 16:00:00+00:00,276.0,270.0,1.93,2.43,13.7,47.59359,-54.27349
2017-10-27 16:10:00+00:00,291.0,291.0,1.48,2.11,13.8,47.59359,-54.27349
2017-10-27 16:20:00+00:00,299.0,300.0,1.35,1.58,14.1,47.59359,-54.27349
2017-10-27 16:30:00+00:00,225.0,222.0,0.72,1.11,13.8,47.59359,-54.27349
2017-10-27 16:40:00+00:00,266.0,290.0,0.51,0.86,14.2,47.59359,-54.27349
2017-10-27 16:50:00+00:00,262.0,253.0,0.87,1.2,13.7,47.59359,-54.27349
2017-10-27 17:00:00+00:00,261.0,258.0,2.78,3.36,13.8,47.59359,-54.27349
2017-10-27 17:10:00+00:00,244.0,248.0,2.61,3.02,13.7,47.59359,-54.27349
2017-10-27 17:20:00+00:00,275.0,267.0,1.67,2.45,13.9,47.59359,-54.27349
2017-10-27 17:30:00+00:00,231.0,232.0,1.83,2.05,13.7,47.59359,-54.27349
2017-10-27 17:40:00+00:00,242.0,245.0,1.87,2.25,13.8,47.59359,-54.27349
2017-10-27 17:50:00+00:00,221.0,213.0,1.9,2.2,13.8,47.59359,-54.27349
2017-10-27 18:00:00+00:00,227.0,223.0,2.04,2.36,13.6,47.59359,-54.27349
2017-10-27 18:10:00+00:00,223.0,222.0,1.52,2.0,13.9,47.59359,-54.27349
2017-10-27 18:20:00+00:00,203.0,208.0,0.69,1.06,14.0,47.59359,-54.27349
2017-10-27 18:30:00+00:00,268.0,270.0,1.38,2.37,13.9,47.59359,-54.27349
2017-10-27 18:40:00+00:00,247.0,252.0,1.14,1.43,13.9,47.59359,-54.27349
2017-10-27 18:50:00+00:00,221.0,218.0,1.42,1.77,14.0,47.59359,-54.27349
2017-10-27 19:00:00+00:00,246.0,248.0,1.31,1.58,13.8,47.59359,-54.27349
2017-10-27 19:10:00+00:00,219.0,229.0,1.83,2.26,13.6,47.59359,-54.27349
2017-10-27 19:20:00+00:00,223.0,220.0,2.07,2.41,13.8,47.59359,-54.27349
2017-10-27 19:30:00+00:00,164.0,166.0,2.33,2.63,13.8,47.59359,-54.27349
2017-10-27 19:40:00+00:00,218.0,217.0,1.98,2.6,13.7,47.59359,-54.27349
2017-10-27 19:50:00+00:00,206.0,201.0,2.56,2.74,13.6,47.59359,-54.27349
2017-10-27 20:00:00+00:00,223.0,225.0,3.47,3.8,13.4,47.59359,-54.27349
2017-10-27 20:10:00+00:00,240.0,242.0,2.97,4.2,13.2,47.59359,-54.27349
2017-10-27 20:20:00+00:00,231.0,231.0,4.0,4.35,13.2,47.59359,-54.27349
2017-10-27 20:30:00+00:00,208.0,209.0,3.57,4.55,13.1,47.59359,-54.27349
2017-10-27 20:40:00+00:00,220.0,222.0,3.32,3.6,13.0,47.59359,-54.27349
2017-10-27 20:50:00+00:00,208.0,209.0,3.08,3.39,13.0,47.59359,-54.27349
2017-10-27 21:00:00+00:00,229.0,223.0,2.61,3.02,13.0,47.59359,-54.27349
2017-10-27 21:10:00+00:00,214.0,214.0,2.57,2.98,12.8,47.59359,-54.27349
2017-10-27 21:20:00+00:00,206.0,209.0,2.95,3.23,12.8,47.59359,-54.27349
2017-10-27 21:30:00+00:00,207.0,211.0,2.71,3.36,12.8,47.59359,-54.27349
2017-10-27 21:40:00+00:00,219.0,224.0,2.6,3.0,12.8,47.59359,-54.27349
2017-10-27 21:50:00+00:00,222.0,219.0,2.92,3.26,12.8,47.59359,-54.27349
2017-10-27 22:00:00+00:00,226.0,231.0,3.15,3.7,12.7,47.59359,-54.27349
2017-10-27 22:10:00+00:00,229.0,233.0,3.44,3.93,12.6,47.59359,-54.27349
2017-10-27 22:20:00+00:00,233.0,234.0,3.21,3.77,12.8,47.59359,-54.27349
2017-10-27 22:30:00+00:00,244.0,241.0,2.43,2.84,12.8,47.59359,-54.27349
2017-10-27 22:40:00+00:00,315.0,0.0,0.01,0.0,12.8,47.59359,-54.27349
2017-10-27 23:00:00+00:00,249.0,257.0,2.07,2.46,12.7,47.59359,-54.27349
2017-10-27 23:10:00+00:00,245.0,239.0,1.77,2.01,12.6,47.59359,-54.27349
2017-10-27 23:20:00+00:00,242.0,239.0,2.75,3.08,12.7,47.59359,-54.27349
2017-10-27 23:30:00+00:00,258.0,262.0,3.75,4.27,12.7,47.59359,-54.27349
2017-10-27 23:40:00+00:00,266.0,271.0,2.29,2.67,12.8,47.59359,-54.27349
2017-10-27 23:50:00+00:00,270.0,270.0,2.54,2.84,12.8,47.59359,-54.27349
